Time,TemperatureF,DewpointF,PressureIn,WindDirection,WindDirectionDegrees,WindSpeedMPH,WindSpeedGustMPH,Humidity,HourlyPrecipIn,Conditions,Clouds,dailyrainin,SoftwareType,DateUTC
2013-06-06 00:02:00,71.0,27.0,29.69,SW,232,0.0,2.0,19,0.00,,,0.00,,2013-06-06 07:02:00,
2013-06-06 00:11:00,71.0,27.0,29.69,SW,232,0.0,2.0,19,0.00,,,0.00,,2013-06-06 07:11:00,
2013-06-06 00:22:00,71.0,25.0,29.69,NNE,25,2.0,4.0,18,0.00,,,0.00,,2013-06-06 07:22:00,
2013-06-06 00:31:00,73.0,26.0,29.69,NNE,30,0.0,1.0,17,0.00,,,0.00,,2013-06-06 07:31:00,
2013-06-06 00:42:00,73.0,26.0,29.69,NNE,30,0.0,1.0,17,0.00,,,0.00,,2013-06-06 07:42:00,
2013-06-06 00:52:00,72.0,26.0,29.69,NNE,30,0.0,2.0,18,0.00,,,0.00,,2013-06-06 07:52:00,
2013-06-06 01:02:00,71.0,27.0,29.69,NNE,30,0.0,1.0,19,0.00,,,0.00,,2013-06-06 08:02:00,
2013-06-06 01:11:00,71.0,27.0,29.69,NNE,30,0.0,1.0,19,0.00,,,0.00,,2013-06-06 08:11:00,
2013-06-06 01:22:00,70.0,26.0,29.68,NNE,30,1.0,2.0,19,0.00,,,0.00,,2013-06-06 08:22:00,
2013-06-06 01:31:00,72.0,26.0,29.68,NE,41,1.0,2.0,18,0.00,,,0.00,,2013-06-06 08:31:00,
2013-06-06 01:42:00,72.0,26.0,29.68,NE,42,0.0,2.0,18,0.00,,,0.00,,2013-06-06 08:42:00,
2013-06-06 01:52:00,72.0,26.0,29.68,NE,42,0.0,2.0,18,0.00,,,0.00,,2013-06-06 08:52:00,
2013-06-06 02:01:00,70.0,27.0,29.68,NE,41,0.0,2.0,20,0.00,,,0.00,,2013-06-06 09:01:00,
2013-06-06 02:12:00,70.0,27.0,29.68,NE,41,0.0,2.0,20,0.00,,,0.00,,2013-06-06 09:12:00,
2013-06-06 02:22:00,70.0,27.0,29.68,NE,42,0.0,2.0,20,0.00,,,0.00,,2013-06-06 09:22:00,
2013-06-06 02:32:00,68.0,27.0,29.68,NE,42,1.0,2.0,21,0.00,,,0.00,,2013-06-06 09:32:00,
2013-06-06 02:42:00,68.0,27.0,29.68,NE,42,1.0,2.0,21,0.00,,,0.00,,2013-06-06 09:42:00,
2013-06-06 02:53:00,67.0,27.0,29.68,NE,41,1.0,2.0,22,0.00,,,0.00,,2013-06-06 09:53:00,
2013-06-06 03:02:00,67.0,28.0,29.68,NE,42,1.0,2.0,23,0.00,,,0.00,,2013-06-06 10:02:00,
2013-06-06 03:12:00,67.0,28.0,29.68,NE,42,0.0,2.0,23,0.00,,,0.00,,2013-06-06 10:12:00,
2013-06-06 03:22:00,67.0,28.0,29.68,NE,42,0.0,2.0,23,0.00,,,0.00,,2013-06-06 10:22:00,
2013-06-06 03:32:00,66.0,27.0,29.67,NE,42,1.0,2.0,23,0.00,,,0.00,,2013-06-06 10:32:00,
2013-06-06 03:41:00,66.0,28.0,29.67,NE,42,0.0,0.0,24,0.00,,,0.00,,2013-06-06 10:41:00,
2013-06-06 03:52:00,66.0,28.0,29.67,NE,42,0.0,0.0,24,0.00,,,0.00,,2013-06-06 10:52:00,
2013-06-06 04:02:00,65.0,27.0,29.68,NE,42,0.0,0.0,24,0.00,,,0.00,,2013-06-06 11:02:00,
2013-06-06 04:11:00,65.0,27.0,29.68,NE,42,0.0,0.0,24,0.00,,,0.00,,2013-06-06 11:11:00,
2013-06-06 04:22:00,65.0,27.0,29.68,NE,42,0.0,0.0,24,0.00,,,0.00,,2013-06-06 11:22:00,
2013-06-06 04:32:00,63.0,29.0,29.68,NE,42,0.0,0.0,27,0.00,,,0.00,,2013-06-06 11:32:00,
2013-06-06 04:42:00,63.0,29.0,29.68,NE,42,0.0,0.0,27,0.00,,,0.00,,2013-06-06 11:42:00,
2013-06-06 04:52:00,63.0,29.0,29.68,NE,42,0.0,0.0,27,0.00,,,0.00,,2013-06-06 11:52:00,
2013-06-06 05:02:00,62.0,29.0,29.68,NE,42,0.0,2.0,28,0.00,,,0.00,,2013-06-06 12:02:00,
2013-06-06 05:12:00,62.0,29.0,29.68,NE,42,0.0,2.0,28,0.00,,,0.00,,2013-06-06 12:12:00,
2013-06-06 05:22:00,62.0,29.0,29.68,NE,42,0.0,0.0,28,0.00,,,0.00,,2013-06-06 12:22:00,
2013-06-06 05:32:00,62.0,29.0,29.68,NE,42,0.0,0.0,29,0.00,,,0.00,,2013-06-06 12:32:00,
2013-06-06 05:42:00,61.0,29.0,29.68,NE,42,0.0,0.0,29,0.00,,,0.00,,2013-06-06 12:42:00,
2013-06-06 05:52:00,61.0,29.0,29.68,NE,42,0.0,0.0,29,0.00,,,0.00,,2013-06-06 12:52:00,
2013-06-06 06:02:00,62.0,30.0,29.69,NE,42,0.0,0.0,30,0.00,,,0.00,,2013-06-06 13:02:00,
2013-06-06 06:12:00,64.0,33.0,29.69,NE,42,0.0,0.0,31,0.00,,,0.00,,2013-06-06 13:12:00,
2013-06-06 06:22:00,64.0,33.0,29.69,NE,42,0.0,0.0,31,0.00,,,0.00,,2013-06-06 13:22:00,
2013-06-06 06:32:00,68.0,32.0,29.69,NE,42,0.0,1.0,26,0.00,,,0.00,,2013-06-06 13:32:00,
2013-06-06 06:42:00,68.0,32.0,29.69,NE,42,0.0,1.0,26,0.00,,,0.00,,2013-06-06 13:42:00,
2013-06-06 06:52:00,71.0,33.0,29.69,NE,41,0.0,2.0,25,0.00,,,0.00,,2013-06-06 13:52:00,
2013-06-06 07:02:00,72.0,33.0,29.69,NE,40,0.0,2.0,24,0.00,,,0.00,,2013-06-06 14:02:00,
2013-06-06 07:12:00,72.0,33.0,29.69,NE,40,0.0,2.0,24,0.00,,,0.00,,2013-06-06 14:12:00,
2013-06-06 07:22:00,74.0,33.0,29.70,NE,39,0.0,2.0,22,0.00,,,0.00,,2013-06-06 14:22:00,
2013-06-06 07:32:00,76.0,31.0,29.70,NE,39,0.0,2.0,19,0.00,,,0.00,,2013-06-06 14:32:00,
2013-06-06 07:42:00,76.0,31.0,29.70,NE,39,0.0,2.0,19,0.00,,,0.00,,2013-06-06 14:42:00,
2013-06-06 07:52:00,79.0,29.0,29.70,NE,39,0.0,0.0,16,0.00,,,0.00,,2013-06-06 14:52:00,
2013-06-06 08:02:00,79.0,30.0,29.70,NE,39,0.0,1.0,17,0.00,,,0.00,,2013-06-06 15:02:00,
2013-06-06 08:12:00,79.0,30.0,29.70,NE,39,0.0,1.0,17,0.00,,,0.00,,2013-06-06 15:12:00,
2013-06-06 08:22:00,82.0,30.0,29.70,West,275,0.0,2.0,15,0.00,,,0.00,,2013-06-06 15:22:00,
2013-06-06 08:32:00,84.0,30.0,29.71,West,276,0.0,3.0,14,0.00,,,0.00,,2013-06-06 15:32:00,
2013-06-06 08:43:00,84.0,30.0,29.71,West,276,0.0,3.0,14,0.00,,,0.00,,2013-06-06 15:43:00,
2013-06-06 08:53:00,85.0,30.0,29.71,West,276,0.0,3.0,14,0.00,,,0.00,,2013-06-06 15:53:00,
2013-06-06 09:02:00,86.0,29.0,29.71,West,279,0.0,2.0,13,0.00,,,0.00,,2013-06-06 16:02:00,
2013-06-06 09:12:00,86.0,29.0,29.71,West,279,0.0,2.0,13,0.00,,,0.00,,2013-06-06 16:12:00,
2013-06-06 09:22:00,88.0,31.0,29.71,West,278,0.0,1.0,13,0.00,,,0.00,,2013-06-06 16:22:00,
2013-06-06 09:33:00,89.0,32.0,29.71,South,184,1.0,5.0,13,0.00,,,0.00,,2013-06-06 16:33:00,
2013-06-06 09:42:00,89.0,32.0,29.71,South,184,1.0,5.0,13,0.00,,,0.00,,2013-06-06 16:42:00,
2013-06-06 09:53:00,90.0,31.0,29.70,West,266,2.0,6.0,12,0.00,,,0.00,,2013-06-06 16:53:00,
2013-06-06 10:02:00,89.0,30.0,29.70,West,264,0.0,6.0,12,0.00,,,0.00,,2013-06-06 17:02:00,
2013-06-06 10:12:00,91.0,31.0,29.70,SSW,211,1.0,5.0,12,0.00,,,0.00,,2013-06-06 17:12:00,
2013-06-06 10:22:00,91.0,31.0,29.70,SSW,211,1.0,5.0,12,0.00,,,0.00,,2013-06-06 17:22:00,
2013-06-06 10:32:00,93.0,31.0,29.70,SSW,211,2.0,6.0,11,0.00,,,0.00,,2013-06-06 17:32:00,
2013-06-06 10:42:00,93.0,31.0,29.70,SSW,211,2.0,6.0,11,0.00,,,0.00,,2013-06-06 17:42:00,
2013-06-06 10:53:00,92.0,30.0,29.69,West,264,0.0,4.0,11,0.00,,,0.00,,2013-06-06 17:53:00,
2013-06-06 11:02:00,95.0,30.0,29.69,SW,226,2.0,8.0,10,0.00,,,0.00,,2013-06-06 18:02:00,
2013-06-06 11:12:00,95.0,30.0,29.69,SW,226,2.0,8.0,10,0.00,,,0.00,,2013-06-06 18:12:00,
2013-06-06 11:22:00,95.0,32.0,29.69,SSW,206,3.0,7.0,11,0.00,,,0.00,,2013-06-06 18:22:00,
2013-06-06 11:33:00,95.0,30.0,29.69,West,267,3.0,7.0,10,0.00,,,0.00,,2013-06-06 18:33:00,
2013-06-06 11:42:00,95.0,30.0,29.69,West,267,3.0,7.0,10,0.00,,,0.00,,2013-06-06 18:42:00,
2013-06-06 11:53:00,96.0,31.0,29.68,NW,315,2.0,5.0,10,0.00,,,0.00,,2013-06-06 18:53:00,
2013-06-06 12:02:00,99.0,30.0,29.67,WSW,245,1.0,7.0,9,0.00,,,0.00,,2013-06-06 19:02:00,
2013-06-06 12:12:00,101.0,32.0,29.67,WSW,243,4.0,9.0,9,0.00,,,0.00,,2013-06-06 19:12:00,
2013-06-06 12:23:00,101.0,32.0,29.67,WSW,243,4.0,9.0,9,0.00,,,0.00,,2013-06-06 19:23:00,
2013-06-06 12:32:00,100.0,31.0,29.66,WSW,251,3.0,9.0,9,0.00,,,0.00,,2013-06-06 19:32:00,
2013-06-06 12:42:00,100.0,31.0,29.66,WSW,251,3.0,9.0,9,0.00,,,0.00,,2013-06-06 19:42:00,
2013-06-06 12:53:00,101.0,32.0,29.66,South,186,3.0,8.0,9,0.00,,,0.00,,2013-06-06 19:53:00,
2013-06-06 13:02:00,102.0,30.0,29.65,West,260,4.0,12.0,8,0.00,,,0.00,,2013-06-06 20:02:00,
2013-06-06 13:12:00,102.0,30.0,29.65,West,260,4.0,12.0,8,0.00,,,0.00,,2013-06-06 20:12:00,
2013-06-06 13:22:00,103.0,30.0,29.65,WSW,257,6.0,12.0,8,0.00,,,0.00,,2013-06-06 20:22:00,
2013-06-06 13:32:00,101.0,29.0,29.64,SW,225,4.0,10.0,8,0.00,,,0.00,,2013-06-06 20:32:00,
2013-06-06 13:42:00,101.0,29.0,29.64,SW,225,4.0,10.0,8,0.00,,,0.00,,2013-06-06 20:42:00,
2013-06-06 13:53:00,103.0,30.0,29.63,West,264,6.0,13.0,8,0.00,,,0.00,,2013-06-06 20:53:00,
2013-06-06 14:02:00,103.0,30.0,29.63,WSW,257,5.0,13.0,8,0.00,,,0.00,,2013-06-06 21:02:00,
2013-06-06 14:11:00,103.0,30.0,29.63,WSW,257,5.0,13.0,8,0.00,,,0.00,,2013-06-06 21:11:00,
2013-06-06 14:22:00,103.0,30.0,29.62,SSW,204,7.0,13.0,8,0.00,,,0.00,,2013-06-06 21:22:00,
2013-06-06 14:32:00,103.0,30.0,29.62,NNW,337,5.0,11.0,8,0.00,,,0.00,,2013-06-06 21:32:00,
2013-06-06 14:43:00,103.0,30.0,29.62,NNW,337,5.0,11.0,8,0.00,,,0.00,,2013-06-06 21:43:00,
2013-06-06 14:53:00,104.0,31.0,29.61,WNW,294,6.0,14.0,8,0.00,,,0.00,,2013-06-06 21:53:00,
2013-06-06 15:02:00,104.0,31.0,29.60,SSE,161,6.0,14.0,8,0.00,,,0.00,,2013-06-06 22:02:00,
2013-06-06 15:12:00,104.0,31.0,29.60,SSE,161,6.0,14.0,8,0.00,,,0.00,,2013-06-06 22:12:00,
2013-06-06 15:22:00,103.0,30.0,29.59,WSW,249,5.0,10.0,8,0.00,,,0.00,,2013-06-06 22:22:00,
2013-06-06 15:33:00,102.0,30.0,29.59,WNW,297,6.0,12.0,8,0.00,,,0.00,,2013-06-06 22:33:00,
2013-06-06 15:43:00,102.0,30.0,29.59,WNW,297,6.0,12.0,8,0.00,,,0.00,,2013-06-06 22:43:00,
2013-06-06 15:53:00,103.0,30.0,29.59,West,261,6.0,15.0,8,0.00,,,0.00,,2013-06-06 22:53:00,
2013-06-06 16:02:00,103.0,30.0,29.59,WSW,255,7.0,15.0,8,0.00,,,0.00,,2013-06-06 23:02:00,
2013-06-06 16:12:00,103.0,30.0,29.59,WSW,255,7.0,15.0,8,0.00,,,0.00,,2013-06-06 23:12:00,
2013-06-06 16:22:00,103.0,30.0,29.58,WNW,286,6.0,11.0,8,0.00,,,0.00,,2013-06-06 23:22:00,
2013-06-06 16:33:00,102.0,30.0,29.57,West,265,7.0,14.0,8,0.00,,,0.00,,2013-06-06 23:33:00,
2013-06-06 16:43:00,102.0,30.0,29.57,West,265,7.0,14.0,8,0.00,,,0.00,,2013-06-06 23:43:00,
2013-06-06 16:52:00,102.0,30.0,29.57,WNW,302,7.0,13.0,8,0.00,,,0.00,,2013-06-06 23:52:00,
2013-06-06 17:02:00,103.0,30.0,29.57,West,265,6.0,13.0,8,0.00,,,0.00,,2013-06-07 00:02:00,
2013-06-06 17:12:00,103.0,30.0,29.57,West,265,6.0,13.0,8,0.00,,,0.00,,2013-06-07 00:12:00,
2013-06-06 17:22:00,102.0,30.0,29.56,WNW,284,5.0,13.0,8,0.00,,,0.00,,2013-06-07 00:22:00,
2013-06-06 17:32:00,101.0,29.0,29.56,WNW,286,5.0,10.0,8,0.00,,,0.00,,2013-06-07 00:32:00,
2013-06-06 17:42:00,101.0,29.0,29.56,WNW,286,5.0,10.0,8,0.00,,,0.00,,2013-06-07 00:42:00,
2013-06-06 17:52:00,101.0,29.0,29.56,West,267,4.0,11.0,8,0.00,,,0.00,,2013-06-07 00:52:00,
2013-06-06 18:02:00,101.0,29.0,29.56,WNW,289,5.0,13.0,8,0.00,,,0.00,,2013-06-07 01:02:00,
2013-06-06 18:11:00,101.0,29.0,29.56,WNW,289,5.0,13.0,8,0.00,,,0.00,,2013-06-07 01:11:00,
2013-06-06 18:22:00,100.0,28.0,29.56,SSW,211,5.0,10.0,8,0.00,,,0.00,,2013-06-07 01:22:00,
2013-06-06 18:32:00,100.0,28.0,29.56,WNW,288,4.0,10.0,8,0.00,,,0.00,,2013-06-07 01:32:00,
2013-06-06 18:42:00,100.0,28.0,29.56,WNW,288,4.0,10.0,8,0.00,,,0.00,,2013-06-07 01:42:00,
2013-06-06 18:52:00,99.0,30.0,29.57,WNW,293,4.0,9.0,9,0.00,,,0.00,,2013-06-07 01:52:00,
2013-06-06 19:02:00,99.0,30.0,29.57,WSW,256,4.0,9.0,9,0.00,,,0.00,,2013-06-07 02:02:00,
2013-06-06 19:12:00,99.0,30.0,29.57,WSW,256,4.0,9.0,9,0.00,,,0.00,,2013-06-07 02:12:00,
2013-06-06 19:22:00,97.0,29.0,29.57,NW,319,3.0,9.0,9,0.00,,,0.00,,2013-06-07 02:22:00,
2013-06-06 19:32:00,96.0,28.0,29.57,NW,326,3.0,8.0,9,0.00,,,0.00,,2013-06-07 02:32:00,
2013-06-06 19:42:00,96.0,28.0,29.57,NW,326,3.0,8.0,9,0.00,,,0.00,,2013-06-07 02:42:00,
2013-06-06 19:52:00,95.0,30.0,29.57,NNW,343,2.0,6.0,10,0.00,,,0.00,,2013-06-07 02:52:00,
2013-06-06 20:01:00,94.0,29.0,29.58,NNW,338,2.0,6.0,10,0.00,,,0.00,,2013-06-07 03:01:00,
2013-06-06 20:11:00,94.0,29.0,29.58,NNW,338,2.0,6.0,10,0.00,,,0.00,,2013-06-07 03:11:00,
2013-06-06 20:22:00,93.0,28.0,29.58,NNW,348,2.0,6.0,10,0.00,,,0.00,,2013-06-07 03:22:00,
2013-06-06 20:32:00,94.0,29.0,29.58,North,3,3.0,8.0,10,0.00,,,0.00,,2013-06-07 03:32:00,
2013-06-06 20:43:00,94.0,29.0,29.58,North,3,3.0,8.0,10,0.00,,,0.00,,2013-06-07 03:43:00,
2013-06-06 20:53:00,94.0,29.0,29.59,NNE,15,3.0,8.0,10,0.00,,,0.00,,2013-06-07 03:53:00,
2013-06-06 21:03:00,93.0,28.0,29.59,NE,45,0.0,7.0,10,0.00,,,0.00,,2013-06-07 04:03:00,
2013-06-06 21:12:00,93.0,28.0,29.59,NE,45,0.0,7.0,10,0.00,,,0.00,,2013-06-07 04:12:00,
2013-06-06 21:22:00,90.0,31.0,29.60,East,99,0.0,2.0,12,0.00,,,0.00,,2013-06-07 04:22:00,
2013-06-06 21:33:00,88.0,31.0,29.61,ESE,102,0.0,4.0,13,0.00,,,0.00,,2013-06-07 04:33:00,
2013-06-06 21:42:00,88.0,31.0,29.61,ESE,102,0.0,4.0,13,0.00,,,0.00,,2013-06-07 04:42:00,
2013-06-06 21:53:00,86.0,33.0,29.61,ESE,102,0.0,1.0,15,0.00,,,0.00,,2013-06-07 04:53:00,
2013-06-06 22:02:00,84.0,31.0,29.62,East,101,0.0,2.0,15,0.00,,,0.00,,2013-06-07 05:02:00,
2013-06-06 22:11:00,84.0,31.0,29.62,East,101,0.0,2.0,15,0.00,,,0.00,,2013-06-07 05:11:00,
2013-06-06 22:22:00,83.0,32.0,29.62,East,101,0.0,0.0,16,0.00,,,0.00,,2013-06-07 05:22:00,
2013-06-06 22:31:00,81.0,31.0,29.62,East,97,0.0,2.0,16,0.00,,,0.00,,2013-06-07 05:31:00,
2013-06-06 22:42:00,81.0,31.0,29.62,East,97,0.0,2.0,16,0.00,,,0.00,,2013-06-07 05:42:00,
2013-06-06 22:52:00,81.0,31.0,29.62,East,97,0.0,0.0,16,0.00,,,0.00,,2013-06-07 05:52:00,
2013-06-06 23:02:00,79.0,32.0,29.62,East,97,0.0,1.0,18,0.00,,,0.00,,2013-06-07 06:02:00,
2013-06-06 23:12:00,79.0,32.0,29.62,East,97,0.0,1.0,18,0.00,,,0.00,,2013-06-07 06:12:00,
2013-06-06 23:21:00,79.0,30.0,29.63,East,97,0.0,0.0,17,0.00,,,0.00,,2013-06-07 06:21:00,
2013-06-06 23:32:00,77.0,30.0,29.62,East,97,0.0,0.0,18,0.00,,,0.00,,2013-06-07 06:32:00,
2013-06-06 23:41:00,77.0,30.0,29.62,East,97,0.0,0.0,18,0.00,,,0.00,,2013-06-07 06:41:00,
2013-06-06 23:52:00,76.0,32.0,29.63,East,97,0.0,1.0,20,0.00,,,0.00,,2013-06-07 06:52:00,